When you browse on this site, cookies collect data to enhance your experience and personalize the content and advertising you see.
Visit our Privacy Policy to learn more. By continuing to use the site, you agree to this use of cookies and data.

Hourly Weather Samos

Today, 12 July, Sunday

Time Temperature Precipitation Wind Pressure Humidity
00:00 +22°C° 0 mm 4 mps 716 mmHg 79%
01:00 +22°C° 0 mm 4 mps 716 mmHg 81%
02:00 +21°C° 0 mm 3 mps 716 mmHg 82%
03:00 +21°C° 0 mm 4 mps 715 mmHg 81%
04:00 +21°C° 0 mm 4 mps 715 mmHg 80%
05:00 +20°C° 0 mm 4 mps 715 mmHg 79%
06:00 +22°C° 0 mm 4 mps 715 mmHg 72%
07:00 +23°C° 0 mm 4 mps 716 mmHg 65%
08:00 +25°C° 0 mm 4 mps 716 mmHg 58%
09:00 +26°C° 0 mm 5 mps 716 mmHg 56%
10:00 +28°C° 0 mm 5 mps 716 mmHg 53%
11:00 +29°C° 0 mm 5 mps 716 mmHg 51%
12:00 +29°C° 0 mm 6 mps 716 mmHg 48%
13:00 +30°C° 0 mm 6 mps 716 mmHg 46%
14:00 +32°C° 0 mm 7 mps 716 mmHg 44%
15:00 +32°C° 0 mm 7 mps 715 mmHg 43%
16:00 +32°C° 0 mm 8 mps 715 mmHg 42%
17:00 +32°C° 0 mm 8 mps 715 mmHg 41%
18:00 +31°C° 0 mm 8 mps 715 mmHg 44%
19:00 +28°C° 0 mm 8 mps 715 mmHg 47%
20:00 +27°C° 0 mm 8 mps 715 mmHg 49%
21:00 +26°C° 0 mm 8 mps 715 mmHg 53%
22:00 +23°C° 0 mm 7 mps 715 mmHg 56%
23:00 +22°C° 0 mm 7 mps 715 mmHg 59%

Tomorrow, 13 July, Monday

Time Temperature Precipitation Wind Pressure Humidity
00:00 +22°C° 0 mm 7 mps 715 mmHg 60%
01:00 +21°C° 0 mm 7 mps 715 mmHg 61%
02:00 +20°C° 0 mm 7 mps 714 mmHg 62%
03:00 +20°C° 0 mm 7 mps 714 mmHg 62%
04:00 +20°C° 0 mm 7 mps 714 mmHg 63%
05:00 +18°C° 0 mm 7 mps 714 mmHg 64%
06:00 +21°C° 0 mm 7 mps 714 mmHg 60%
07:00 +22°C° 0 mm 7 mps 714 mmHg 56%
08:00 +24°C° 0 mm 7 mps 715 mmHg 52%
09:00 +26°C° 0 mm 7 mps 715 mmHg 46%
10:00 +28°C° 0 mm 7 mps 715 mmHg 41%
11:00 +30°C° 0 mm 7 mps 715 mmHg 35%
12:00 +32°C° 0 mm 8 mps 715 mmHg 34%
13:00 +33°C° 0 mm 8 mps 715 mmHg 32%
14:00 +33°C° 0 mm 9 mps 715 mmHg 31%
15:00 +33°C° 0 mm 9 mps 715 mmHg 34%
16:00 +32°C° 0 mm 9 mps 715 mmHg 37%
17:00 +31°C° 0 mm 10 mps 714 mmHg 40%
18:00 +28°C° 0 mm 10 mps 715 mmHg 46%
19:00 +27°C° 0 mm 9 mps 715 mmHg 52%
20:00 +24°C° 0 mm 9 mps 715 mmHg 58%
21:00 +22°C° 0 mm 9 mps 715 mmHg 62%
22:00 +21°C° 0 mm 8 mps 715 mmHg 67%
23:00 +20°C° 0 mm 8 mps 715 mmHg 71%

Day after tomorrow, 14 July, Tuesday

Time Temperature Precipitation Wind Pressure Humidity
00:00 +20°C° 0 mm 8 mps 715 mmHg 74%
01:00 +18°C° 0 mm 8 mps 715 mmHg 76%
02:00 +17°C° 0 mm 8 mps 715 mmHg 79%
03:00 +17°C° 0 mm 8 mps 715 mmHg 81%
04:00 +17°C° 0 mm 8 mps 715 mmHg 83%
05:00 +16°C° 0 mm 8 mps 715 mmHg 84%
06:00 +18°C° 0 mm 8 mps 715 mmHg 77%
07:00 +20°C° 0 mm 7 mps 715 mmHg 69%
08:00 +22°C° 0 mm 7 mps 716 mmHg 62%
09:00 +24°C° 0 mm 7 mps 716 mmHg 57%
10:00 +26°C° 0 mm 6 mps 716 mmHg 52%
11:00 +28°C° 0 mm 5 mps 716 mmHg 48%
12:00 +29°C° 0 mm 6 mps 716 mmHg 46%
13:00 +29°C° 0 mm 6 mps 716 mmHg 44%
14:00 +30°C° 0 mm 7 mps 716 mmHg 42%
15:00 +31°C° 0 mm 8 mps 716 mmHg 43%
16:00 +31°C° 0 mm 8 mps 716 mmHg 43%
17:00 +31°C° 0 mm 9 mps 715 mmHg 44%
18:00 +28°C° 0 mm 8 mps 716 mmHg 49%
19:00 +27°C° 0 mm 8 mps 716 mmHg 53%
20:00 +24°C° 0 mm 7 mps 716 mmHg 58%
21:00 +23°C° 0 mm 7 mps 716 mmHg 61%
22:00 +22°C° 0 mm 6 mps 716 mmHg 63%
23:00 +21°C° 0 mm 6 mps 716 mmHg 66%

15 July, Wednesday

Time Temperature Precipitation Wind Pressure Humidity
00:00 +20°C° 0 mm 6 mps 716 mmHg 67%
01:00 +20°C° 0 mm 6 mps 716 mmHg 69%
02:00 +19°C° 0 mm 6 mps 716 mmHg 71%
03:00 +19°C° 0 mm 6 mps 716 mmHg 72%
04:00 +17°C° 0 mm 6 mps 716 mmHg 74%
05:00 +17°C° 0 mm 6 mps 716 mmHg 75%
06:00 +19°C° 0 mm 6 mps 716 mmHg 70%
07:00 +20°C° 0 mm 6 mps 717 mmHg 65%
08:00 +21°C° 0 mm 6 mps 717 mmHg 60%
09:00 +23°C° 0 mm 6 mps 717 mmHg 58%
10:00 +24°C° 0 mm 6 mps 717 mmHg 55%
11:00 +26°C° 0 mm 6 mps 718 mmHg 52%
12:00 +27°C° 0 mm 6 mps 718 mmHg 50%
13:00 +28°C° 0 mm 7 mps 718 mmHg 48%
14:00 +29°C° 0 mm 8 mps 718 mmHg 46%
15:00 +29°C° 0 mm 8 mps 717 mmHg 46%
16:00 +29°C° 0 mm 8 mps 717 mmHg 46%
17:00 +28°C° 0 mm 8 mps 717 mmHg 46%
18:00 +27°C° 0 mm 7 mps 717 mmHg 50%
19:00 +24°C° 0 mm 7 mps 717 mmHg 54%
20:00 +23°C° 0 mm 7 mps 717 mmHg 57%
21:00 +22°C° 0 mm 6 mps 717 mmHg 60%
22:00 +22°C° 0 mm 6 mps 717 mmHg 62%
23:00 +21°C° 0 mm 6 mps 717 mmHg 65%

16 July, Thursday

Time Temperature Precipitation Wind Pressure Humidity
00:00 +20°C° 0 mm 6 mps 717 mmHg 65%
01:00 +20°C° 0 mm 6 mps 717 mmHg 65%
02:00 +19°C° 0 mm 6 mps 717 mmHg 66%
03:00 +17°C° 0 mm 6 mps 716 mmHg 66%
04:00 +17°C° 0 mm 6 mps 716 mmHg 67%
05:00 +16°C° 0 mm 6 mps 716 mmHg 68%
06:00 +19°C° 0 mm 6 mps 716 mmHg 63%
07:00 +20°C° 0 mm 6 mps 716 mmHg 58%
08:00 +21°C° 0 mm 6 mps 716 mmHg 54%
09:00 +23°C° 0 mm 6 mps 716 mmHg 51%
10:00 +24°C° 0 mm 6 mps 716 mmHg 48%
11:00 +27°C° 0 mm 7 mps 716 mmHg 45%
12:00 +28°C° 0 mm 7 mps 716 mmHg 43%
13:00 +29°C° 0 mm 8 mps 716 mmHg 41%
14:00 +31°C° 0 mm 8 mps 716 mmHg 38%
15:00 +31°C° 0 mm 9 mps 715 mmHg 37%
16:00 +31°C° 0 mm 9 mps 715 mmHg 36%
17:00 +31°C° 0 mm 9 mps 715 mmHg 35%
18:00 +28°C° 0 mm 8 mps 715 mmHg 39%
19:00 +26°C° 0 mm 8 mps 715 mmHg 42%
20:00 +24°C° 0 mm 7 mps 715 mmHg 46%
21:00 +22°C° 0 mm 7 mps 715 mmHg 49%
22:00 +21°C° 0 mm 7 mps 715 mmHg 53%
23:00 +20°C° 0 mm 7 mps 715 mmHg 56%

17 July, Friday

Time Temperature Precipitation Wind Pressure Humidity
00:00 +20°C° 0 mm 6 mps 714 mmHg 58%
01:00 +19°C° 0 mm 6 mps 714 mmHg 59%
02:00 +17°C° 0 mm 6 mps 714 mmHg 60%
03:00 +17°C° 0 mm 6 mps 714 mmHg 62%
04:00 +16°C° 0 mm 6 mps 714 mmHg 63%
05:00 +16°C° 0 mm 6 mps 713 mmHg 65%
06:00 +19°C° 0 mm 6 mps 713 mmHg 61%
07:00 +20°C° 0 mm 6 mps 714 mmHg 57%
08:00 +22°C° 0 mm 6 mps 714 mmHg 52%
09:00 +23°C° 0 mm 6 mps 714 mmHg 49%
10:00 +26°C° 0 mm 6 mps 714 mmHg 46%
11:00 +27°C° 0 mm 6 mps 714 mmHg 43%
12:00 +28°C° 0 mm 6 mps 714 mmHg 41%
13:00 +29°C° 0 mm 7 mps 714 mmHg 39%
14:00 +30°C° 0 mm 7 mps 714 mmHg 37%
15:00 +30°C° 0 mm 7 mps 714 mmHg 37%
16:00 +31°C° 0 mm 8 mps 714 mmHg 38%
17:00 +31°C° 0 mm 8 mps 713 mmHg 38%
18:00 +28°C° 0 mm 8 mps 713 mmHg 43%
19:00 +27°C° 0 mm 7 mps 714 mmHg 48%
20:00 +24°C° 0 mm 7 mps 714 mmHg 53%
21:00 +23°C° 0 mm 7 mps 714 mmHg 56%
22:00 +22°C° 0 mm 6 mps 714 mmHg 59%
23:00 +21°C° 0 mm 6 mps 714 mmHg 63%
Show more